Showing default

KUIPER-00011, 63727

Orbit data source: Space-Track

KUIPER-00011, 63727 is a payload satellite owned by Kuiper Systems (US) in LEO that was launched on Mon, 28 Apr 2025 UTC via an ATLAS V 551 launch vehicle from the Air Force Eastern Test Range (AFETR). Payload-class satellites include a variety of spacecraft equipped with specific instruments for various scientific and technological missions. These include communications satellites like Starlink; space stations such as the ISS; scientific satellites like the Hubble; Earth observation satellites from companies like Planet Labs, Umbra, and HawkEye 360; GPS; miniature CubeSats for education and research; and military/defense satellites.

Loading next visibility...
Identifier
63727, 2025-088D
Orbit
LEO
Country
Flag of USUS
Related business
Manufacturer
Kuiper Systems
Mission
Operational Commercial Communications
Bus & Motor
KUIPER, Unknown motor
Mass
~490 kg wet, ~490 kg dry
Launch date (UTC)
2025-04-28 (8 months ago)
Launch vehicle
ATLAS V 551
Launch site
Air Force Eastern Test Range (AFETR)
Object type
Payload
Rocket body
Debris
Shape & HBR
Box + 2 Pan, 3.4 m
Radar Cross Section
2.326 m², Large (>1 m²)

Expand to show TLE details & history
Last TLE update: 14 hours ago

TLE from 14 hours ago
0 KUIPER-00011
1 63727U 25088D   25346.68727149  .00005716  00000-0  77703-3 0  9998
2 63727  51.8975 115.3791 0014443 180.2879 179.8078 14.79946629 34879
Epoch: 2025-12-12T16:29Z
TLE epoch observation values (Epoch: 2025-12-12T16:29:40.256Z)
Latitude
0.00002°
Longitude
146.33606°
Altitude
640.36 km
Speed
7.534 km/s
True Right ascension
07h 41m 30s
True Declination
0° 00' 00"
Sunlit
Object was in full shadow at epoch
Visualization orbit readout
Latitude
Unknown
Longitude
Unknown
Altitude
Unknown
Speed
Unknown
Apparent Right ascension
Unknown
Apparent Declination
Unknown
Sunlit
N/A
Visualization observer readout
Local Sidereal Time
05:23:00
Azimuth
Unknown
Elevation
Unknown
Doppler factor
Unknown
Orbital elements
Apogee altitude
640.066 km
Perigee altitude
619.822 km
Semi-major axis
7,008.081 km
Eccentricity
0.00144
Inclination
51.8975°
RAAN
115.3791°
Arg. of periapsis
180.2879°
True anomaly
179.80835°
Mean anomaly
179.8078°
Eccentric anomaly
179.80808°
Mean motion
3.69951 °/min
Orbital period
97.31 mins
BSTAR
0.00077703
Loading maneuver chart data...
Computing Atmospheric mass density...
Loading historical data...
Loading historical data...
Loading historical data...
Loading historical data...
Loading historical data...
Loading historical data...
Loading historical data...

Documentation

Showing up to 5 results
|